Location: Treviso
(45.6669°N, 12.2430°E)
Time: 08:02:47
(UTC+02:00)

ISS - Pass Details

Date: 16 March 2018
Orbit: 402 x 407 km, 51.6° (Epoch: 25 June)

Event Time Altitude Azimuth Distance (km) Brightness Sun altitude
Exits shadow 03:51:17 25° 56° (NE) 865 -1.5 -26.4°
Drops below altitude 10° 03:53:09 10° 81° (E) 1,479 -0.1 -26.1°
Enters shadow 04:50:52 -66° 293° (WNW) 12,115 3.6 -16.6°
Maximum altitude 05:26:51 66° 213° (SSW) 450 -3.8 -10.5°
